Regional Weather Roundup
Issued by NWS State College, PA

Home | Current Version | Previous Version | Graphics & Text | Print | Product List | Glossary On
Versions: 1 2 3 4 5 6 7 8 9 10 11 12 13 14 15 16 17 18 19 20 21 22 23 24 25 26 27 28 29 30 31 32 33 34 35 36 37 38 39 40 41 42 43 44 45 46 47 48 49 50
888
ASUS41 KCTP 211503
RWRCTP
REGIONAL WEATHER ROUNDUP
NATIONAL WEATHER SERVICE STATE COLLEGE PA
1000 AM EST SUN JAN 21 2018

Note: "fair" indicates few or no clouds below 12,000 feet with no
significant weather and/or obstructions to visibility.

* = STATION THAT DOES NOT REPORT PRECIPITATION /E.G. RAIN...SNOW...ETC/
    THUNDER OR FOG.

PAZ002>004-007>009-013>016-020>023-029>032-211600-
WESTERN PENNSYLVANIA

CITY           SKY/WX    TMP DP  RH WIND       PRES   REMARKS
ERIE           CLOUDY    38  36  92 S6        30.13R FOG
MEADVILLE      CLOUDY    36  36 100 S5        30.12R FOG
FRANKLIN*      LGT RAIN  36  35  96 S6        30.13R VSB 1/4
NEW CASTLE     LGT RAIN  39  39 100 CALM      30.14R VSB 1/4
BEAVER COUNTY  FOG       41  39  93 S7        30.13R VSB 1/4
BUTLER*        LGT RAIN  40  40 100 S6        30.14R VSB 1/4
PITTSBURGH INT CLOUDY    43  43 100 SW6       30.13S FOG
PITTSBURGH     CLOUDY    42  41  96 S10       30.13S
INDIANA*       FOG       39  39 100 CALM      30.18R VSB 0
LATROBE        CLOUDY    45  45 100 SW12      30.16R FOG
WASHINGTON CO* NOT AVBL
$$

PAZ004>006-010>012-017>019-024>028-033>037-041-042-045-046-049>053-211600-
CENTRAL PENNSYLVANIA

CITY           SKY/WX    TMP DP  RH WIND       PRES   REMARKS
BRADFORD       CLOUDY    36  35  96 CALM      30.10S FOG
DUBOIS           N/A    N/A N/A N/A MISG      30.12R
CLEARFIELD     FOG       38  37  97 CALM      30.15R VSB 1/4
JOHNSTOWN      FOG       43  42  97 SW9       30.12R VSB 1/4
ALTOONA        FOG       42  41  96 CALM      30.16R VSB 1/4
STATE COLLEGE  CLOUDY    41  37  87 CALM      30.17R
WILLIAMSPORT   CLOUDY    33  29  85 CALM      30.19R
SELINSGROVE    CLOUDY    35  30  82 CALM      30.20R
FT INDIANTOWN  CLOUDY    39  39  99 CALM      30.20R
CAPITAL CITY   CLOUDY    39  33  79 CALM      30.20R
HARRISBURG     CLOUDY    37  33  85 CALM      30.20R
YORK           CLOUDY    41  36  82 CALM      30.20R
$$

PAZ038>040-043-044-047-048-054-055-060>062-067>071-211600-
EASTERN PENNSYLVANIA

CITY           SKY/WX    TMP DP  RH WIND       PRES   REMARKS
SCRANTON       FAIR      35  29  78 CALM      30.18R
MOUNT POCONO   FAIR      35  29  78 W10       30.14R
ALLENTOWN      PTSUNNY   45  33  63 W3        30.20R
QUAKERTOWN*    CLOUDY    43  32  65 MISG      30.21R
READING        CLOUDY    44  38  79 CALM      30.20R
LANCASTER      CLOUDY    39  35  86 CALM      30.20R
COATESVILLE    CLOUDY    45  36  70 CALM      30.21R
POTTSTOWN      CLOUDY    40  34  79 CALM      30.22R
BLUE BELL      CLOUDY    43  34  70 CALM      30.22S
DOYLESTOWN     FAIR      45  33  63 W5        30.20R
WILLOW GROVE   NOT AVBL
NORTH PHILA    FAIR      51  35  54 NW8       30.22R
PHILADELPHIA   CLOUDY    42  33  70 W5        30.22R
$$




USA.gov is the U.S. government's official web portal to all federal, state and local government web resources and services.